Location: Great Falls Observatory Park
(38.9954°N, 77.3130°W)
Time: 21:46:54
(UTC-04:00)

ISS - Visible Passes

Search period start: 21 March 2019 00:00
Search period end: 31 March 2019 00:00
Orbit: 406 x 411 km, 51.6° (Epoch: 22 March)

Date Brightness Start Highest point End Pass type
(mag) Time Alt. Az. Time Alt. Az. Time Alt. Az.
21 Mar -2.9 20:01:46 10° SSW 20:04:40 29° SE 20:07:16 12° ENE visible
21 Mar -1.4 21:38:15 10° W 21:40:04 23° WNW 21:40:04 23° WNW visible
22 Mar -3.0 20:46:52 10° WSW 20:50:05 50° NW 20:51:53 22° NNE visible
23 Mar -3.9 19:55:44 10° SW 19:59:02 85° SE 20:02:20 10° NE visible
23 Mar -1.2 21:33:41 10° WNW 21:35:57 17° NNW 21:36:16 17° NNW visible
24 Mar -1.6 20:41:56 10° W 20:44:42 24° NNW 20:47:28 10° NNE visible
25 Mar -2.4 19:50:24 10° WSW 19:53:31 38° NNW 19:56:38 10° NE visible
25 Mar -0.8 21:29:32 10° NW 21:30:48 12° NNW 21:31:44 11° N visible
26 Mar -1.0 20:37:27 10° NW 20:39:26 15° NNW 20:41:25 10° NNE visible
28 Mar -0.9 20:33:24 10° NNW 20:34:15 11° N 20:35:05 10° N visible
30 Mar -0.5 22:04:48 10° NNW 22:05:00 11° NNW 22:05:00 11° NNW visible
